Time,TemperatureF,DewpointF,PressureIn,WindDirection,WindDirectionDegrees,WindSpeedMPH,WindSpeedGustMPH,Humidity,HourlyPrecipIn,Conditions,Clouds,dailyrainin,SoftwareType,DateUTC
2013-12-19 00:11:00,50.0,41.0,29.79,East,94,3.0,-999.0,71,-99.99,,,-99.99,,2013-12-19 07:11:00,
2013-12-19 00:21:00,52.0,43.0,29.78,East,88,3.0,-999.0,70,-99.99,,,-99.99,,2013-12-19 07:21:00,
2013-12-19 00:42:00,53.0,44.0,29.77,East,93,4.0,-999.0,71,-99.99,,,-99.99,,2013-12-19 07:42:00,
2013-12-19 00:52:00,53.0,46.0,29.77,East,88,4.0,-999.0,77,-99.99,,,-99.99,,2013-12-19 07:52:00,
2013-12-19 01:11:00,54.0,48.0,29.76,East,97,4.0,-999.0,79,-99.99,,,-99.99,,2013-12-19 08:11:00,
2013-12-19 01:21:00,53.0,47.0,29.76,East,86,3.0,-999.0,80,-99.99,,,-99.99,,2013-12-19 08:21:00,
2013-12-19 01:52:00,54.0,48.0,29.76,East,88,1.0,-999.0,80,-99.99,,,-99.99,,2013-12-19 08:52:00,
2013-12-19 02:02:00,54.0,48.0,29.76,East,88,1.0,-999.0,80,-99.99,,,-99.99,,2013-12-19 09:02:00,
2013-12-19 02:11:00,54.0,48.0,29.76,East,88,1.0,-999.0,80,-99.99,,,-99.99,,2013-12-19 09:11:00,
2013-12-19 02:22:00,51.0,44.0,29.75,East,89,0.0,-999.0,78,-99.99,,,-99.99,,2013-12-19 09:22:00,
2013-12-19 02:33:00,51.0,44.0,29.75,East,89,0.0,-999.0,78,-99.99,,,-99.99,,2013-12-19 09:33:00,
2013-12-19 02:43:00,51.0,44.0,29.75,East,89,0.0,-999.0,78,-99.99,,,-99.99,,2013-12-19 09:43:00,
2013-12-19 02:53:00,49.0,44.0,29.74,East,101,2.0,-999.0,82,-99.99,,,-99.99,,2013-12-19 09:53:00,
2013-12-19 03:12:00,47.0,41.0,29.75,East,101,0.0,-999.0,81,-99.99,,,-99.99,,2013-12-19 10:12:00,
2013-12-19 03:23:00,48.0,43.0,29.74,ESE,109,2.0,-999.0,82,-99.99,,,-99.99,,2013-12-19 10:23:00,
2013-12-19 03:43:00,46.0,40.0,29.74,ESE,109,0.0,-999.0,80,-99.99,,,-99.99,,2013-12-19 10:43:00,
2013-12-19 03:53:00,46.0,40.0,29.74,ESE,109,0.0,-999.0,79,-99.99,,,-99.99,,2013-12-19 10:53:00,
2013-12-19 04:22:00,43.0,37.0,29.74,ESE,109,0.0,-999.0,80,-99.99,,,-99.99,,2013-12-19 11:22:00,
2013-12-19 06:11:00,43.0,39.0,29.72,East,101,0.0,-999.0,87,-99.99,,,-99.99,,2013-12-19 13:11:00,
2013-12-19 06:52:00,43.0,40.0,29.72,East,95,1.0,-999.0,89,-99.99,,,-99.99,,2013-12-19 13:52:00,
2013-12-19 07:12:00,42.0,39.0,29.73,NNE,22,1.0,-999.0,88,-99.99,,,-99.99,,2013-12-19 14:12:00,
2013-12-19 07:21:00,41.0,38.0,29.73,NNE,22,0.0,-999.0,88,-99.99,,,-99.99,,2013-12-19 14:21:00,
2013-12-19 07:42:00,41.0,38.0,29.74,WNW,283,3.0,-999.0,89,-99.99,,,-99.99,,2013-12-19 14:42:00,
2013-12-19 07:52:00,42.0,39.0,29.74,WNW,283,2.0,-999.0,89,-99.99,,,-99.99,,2013-12-19 14:52:00,
2013-12-19 08:11:00,42.0,39.0,29.74,WNW,283,1.0,-999.0,89,-99.99,,,-99.99,,2013-12-19 15:11:00,
2013-12-19 08:22:00,42.0,39.0,29.74,WNW,283,1.0,-999.0,89,-99.99,,,-99.99,,2013-12-19 15:22:00,
2013-12-19 08:43:00,43.0,40.0,29.73,WNW,286,1.0,-999.0,89,-99.99,,,-99.99,,2013-12-19 15:43:00,
2013-12-19 08:54:00,44.0,41.0,29.73,WNW,286,0.0,-999.0,90,-99.99,,,-99.99,,2013-12-19 15:54:00,
2013-12-19 09:12:00,47.0,44.0,29.73,WNW,286,1.0,-999.0,90,-99.99,,,-99.99,,2013-12-19 16:12:00,
2013-12-19 09:23:00,47.0,44.0,29.73,WNW,288,2.0,-999.0,89,-99.99,,,-99.99,,2013-12-19 16:23:00,
2013-12-19 09:42:00,49.0,46.0,29.74,WNW,288,1.0,-999.0,88,-99.99,,,-99.99,,2013-12-19 16:42:00,
2013-12-19 09:53:00,51.0,47.0,29.74,WNW,288,1.0,-999.0,85,-99.99,,,-99.99,,2013-12-19 16:53:00,
2013-12-19 10:12:00,53.0,47.0,29.74,WNW,288,0.0,-999.0,81,-99.99,,,-99.99,,2013-12-19 17:12:00,
2013-12-19 10:22:00,55.0,48.0,29.75,WNW,288,0.0,-999.0,78,-99.99,,,-99.99,,2013-12-19 17:22:00,
2013-12-19 10:42:00,58.0,49.0,29.75,WNW,288,0.0,-999.0,72,-99.99,,,-99.99,,2013-12-19 17:42:00,
2013-12-19 10:52:00,60.0,48.0,29.76,NW,315,2.0,-999.0,64,-99.99,,,-99.99,,2013-12-19 17:52:00,
2013-12-19 11:12:00,62.0,47.0,29.76,WNW,291,5.0,-999.0,59,-99.99,,,-99.99,,2013-12-19 18:12:00,
2013-12-19 11:21:00,63.0,46.0,29.75,NNW,334,7.0,-999.0,54,-99.99,,,-99.99,,2013-12-19 18:21:00,
2013-12-19 11:42:00,62.0,45.0,29.75,NW,319,7.0,-999.0,53,-99.99,,,-99.99,,2013-12-19 18:42:00,
2013-12-19 11:52:00,62.0,45.0,29.75,NW,316,7.0,-999.0,54,-99.99,,,-99.99,,2013-12-19 18:52:00,
2013-12-19 12:11:00,62.0,44.0,29.75,NW,309,8.0,-999.0,52,-99.99,,,-99.99,,2013-12-19 19:11:00,
2013-12-19 12:21:00,62.0,44.0,29.74,NW,311,9.0,-999.0,52,-99.99,,,-99.99,,2013-12-19 19:21:00,
2013-12-19 12:42:00,62.0,44.0,29.73,NW,313,9.0,-999.0,52,-99.99,,,-99.99,,2013-12-19 19:42:00,
2013-12-19 12:52:00,64.0,45.0,29.73,NW,315,9.0,-999.0,51,-99.99,,,-99.99,,2013-12-19 19:52:00,
2013-12-19 13:22:00,64.0,45.0,29.71,NW,310,7.0,-999.0,51,-99.99,,,-99.99,,2013-12-19 20:22:00,
2013-12-19 13:42:00,65.0,45.0,29.70,NW,317,6.0,-999.0,49,-99.99,,,-99.99,,2013-12-19 20:42:00,
2013-12-19 13:52:00,66.0,46.0,29.69,NW,321,6.0,-999.0,48,-99.99,,,-99.99,,2013-12-19 20:52:00,
2013-12-19 14:21:00,67.0,47.0,29.69,NW,317,5.0,-999.0,49,-99.99,,,-99.99,,2013-12-19 21:21:00,
2013-12-19 14:43:00,67.0,47.0,29.68,NNW,329,3.0,-999.0,48,-99.99,,,-99.99,,2013-12-19 21:43:00,
2013-12-19 14:53:00,68.0,46.0,29.68,WNW,301,5.0,-999.0,46,-99.99,,,-99.99,,2013-12-19 21:53:00,
2013-12-19 15:13:00,67.0,46.0,29.67,NW,314,2.0,-999.0,47,-99.99,,,-99.99,,2013-12-19 22:13:00,
2013-12-19 15:23:00,67.0,46.0,29.67,NNW,344,0.0,-999.0,46,-99.99,,,-99.99,,2013-12-19 22:23:00,
2013-12-19 15:42:00,67.0,46.0,29.67,NNW,344,0.0,-999.0,47,-99.99,,,-99.99,,2013-12-19 22:42:00,
2013-12-19 15:53:00,67.0,46.0,29.66,NNW,344,0.0,-999.0,46,-99.99,,,-99.99,,2013-12-19 22:53:00,
2013-12-19 16:12:00,68.0,46.0,29.66,NNW,344,0.0,-999.0,45,-99.99,,,-99.99,,2013-12-19 23:12:00,
2013-12-19 16:21:00,68.0,46.0,29.66,NNW,329,0.0,-999.0,46,-99.99,,,-99.99,,2013-12-19 23:21:00,
2013-12-19 16:42:00,68.0,45.0,29.66,NNW,329,0.0,-999.0,44,-99.99,,,-99.99,,2013-12-19 23:42:00,
2013-12-19 16:53:00,67.0,46.0,29.66,NNW,329,0.0,-999.0,46,-99.99,,,-99.99,,2013-12-19 23:53:00,
2013-12-19 17:11:00,67.0,48.0,29.65,NNW,329,0.0,-999.0,50,-99.99,,,-99.99,,2013-12-20 00:11:00,
2013-12-19 17:21:00,65.0,49.0,29.65,NNW,329,0.0,-999.0,57,-99.99,,,-99.99,,2013-12-20 00:21:00,
2013-12-19 17:42:00,64.0,47.0,29.65,NNW,329,0.0,-999.0,53,-99.99,,,-99.99,,2013-12-20 00:42:00,
2013-12-19 17:52:00,63.0,47.0,29.65,NNW,329,0.0,-999.0,55,-99.99,,,-99.99,,2013-12-20 00:52:00,
2013-12-19 18:11:00,62.0,46.0,29.65,NNW,329,0.0,-999.0,55,-99.99,,,-99.99,,2013-12-20 01:11:00,
2013-12-19 18:21:00,62.0,47.0,29.65,NNW,329,0.0,-999.0,57,-99.99,,,-99.99,,2013-12-20 01:21:00,
2013-12-19 18:52:00,59.0,46.0,29.66,NNW,329,0.0,-999.0,62,-99.99,,,-99.99,,2013-12-20 01:52:00,
2013-12-19 19:11:00,58.0,47.0,29.65,NNW,329,0.0,-999.0,66,-99.99,,,-99.99,,2013-12-20 02:11:00,
2013-12-19 19:21:00,57.0,46.0,29.65,NNW,329,0.0,-999.0,66,-99.99,,,-99.99,,2013-12-20 02:21:00,
2013-12-19 19:42:00,57.0,47.0,29.66,NNW,329,0.0,-999.0,69,-99.99,,,-99.99,,2013-12-20 02:42:00,
2013-12-19 19:52:00,56.0,46.0,29.66,NNW,329,0.0,-999.0,68,-99.99,,,-99.99,,2013-12-20 02:52:00,
2013-12-19 20:11:00,56.0,46.0,29.66,NNW,329,0.0,-999.0,69,-99.99,,,-99.99,,2013-12-20 03:11:00,
2013-12-19 20:21:00,55.0,45.0,29.66,NNW,329,0.0,-999.0,70,-99.99,,,-99.99,,2013-12-20 03:21:00,
2013-12-19 20:43:00,56.0,47.0,29.67,NNW,329,0.0,-999.0,71,-99.99,,,-99.99,,2013-12-20 03:43:00,
2013-12-19 20:53:00,56.0,47.0,29.66,NNW,329,0.0,-999.0,72,-99.99,,,-99.99,,2013-12-20 03:53:00,
2013-12-19 21:13:00,56.0,47.0,29.66,NNW,329,0.0,-999.0,71,-99.99,,,-99.99,,2013-12-20 04:13:00,
2013-12-19 21:23:00,56.0,47.0,29.66,NNW,329,0.0,-999.0,72,-99.99,,,-99.99,,2013-12-20 04:23:00,
2013-12-19 21:42:00,58.0,46.0,29.66,NW,310,9.0,-999.0,64,-99.99,,,-99.99,,2013-12-20 04:42:00,
2013-12-19 21:53:00,58.0,45.0,29.66,NW,306,13.0,-999.0,62,-99.99,,,-99.99,,2013-12-20 04:53:00,
2013-12-19 22:22:00,56.0,45.0,29.67,WNW,295,11.0,-999.0,66,-99.99,,,-99.99,,2013-12-20 05:22:00,
2013-12-19 22:42:00,55.0,45.0,29.68,WNW,289,11.0,-999.0,70,-99.99,,,-99.99,,2013-12-20 05:42:00,
2013-12-19 22:53:00,55.0,47.0,29.68,WNW,290,9.0,-999.0,74,-99.99,,,-99.99,,2013-12-20 05:53:00,
2013-12-19 23:12:00,53.0,47.0,29.69,West,275,9.0,-999.0,79,-99.99,,,-99.99,,2013-12-20 06:12:00,
2013-12-19 23:22:00,53.0,48.0,29.70,WNW,290,7.0,-999.0,82,-99.99,,,-99.99,,2013-12-20 06:22:00,
2013-12-19 23:43:00,53.0,48.0,29.70,WNW,287,3.0,-999.0,84,-99.99,,,-99.99,,2013-12-20 06:43:00,
2013-12-19 23:52:00,53.0,48.0,29.70,WNW,287,0.0,-999.0,84,-99.99,,,-99.99,,2013-12-20 06:52:00,